Content
SEND FEEDBACK

Daily
Averages
Monthly
Summary
Canada

MONTREAL, QUEBEC


Home > North America > Canada > Quebec
Elevation: 35 meters     Latitude: 45 28N     Longitude: 073 45W

WEATHER
 
SELECT A DAY
Number of Records: 200,695;   Date Range: 1/1/95 - 9/29/14
 
SHARE

PRINT THIS DATA

[ ← Previous Day ]
WEATHER ALMANAC - 3 FEBRUARY, 2013
[ Next Day → ]
[ °F ]   °C
Weather ElementAverageHighLow
Temperature-12.4 °C-9 °C (4:00 pm)-16 °C (5:00 am)
Dewpoint-16.2 °C-13 °C (3:00 pm)-19 °C (3:00 am)
Humidity74.5 %79 % (12:00 pm)64 % (1:00 am)
Barometer941.8 hPa1018.6 hPa (1:00 am) (7:00 pm)
Wind Speed13.8 km/h18.5 km/h (2:00 pm)
Weather ElementAverage
Visibility21.9 km
Wind DirectionESE (125.7 °)

Weather ElementTotal
Precipitation---
Heating Degree Days30.8 (Base 18.3)
Averaged from 28 records on 3 February, 2013
WEATHER CONDITIONS BREAKOUT
WIND DIRECTION BREAKOUT
WEATHER BY HOUR - 3 FEBRUARY, 2013
[ °F ]   °C
Local TimeTemperatureDewpointHumidityBarometerVisibilityWind DirectionWind SpeedGust SpeedPrecipitationEventsConditions
1:00 AM-15 °C-18.3 °C64 %1018.6 hPa11.3 kmNNE (20°)13 km/hSnowLight Snow
1:00 AM-15 °C-18 °C78 %1018.6 hPa12.9 kmNNE (20°)14.8 km/hSnowLight Snow
2:00 AM-15 °C-18 °C78 %1018.3 hPa11.3 kmNorth (360°)16.7 km/hSnowLight Snow
3:00 AM-15 °C-19 °C72 %1018.3 hPa9.7 kmNorth (360°)14.8 km/hSnowLight Snow
4:00 AM-15 °C-19 °C72 %1017.9 hPa19.3 kmNNE (20°)14.8 km/hSnowLight Snow
5:00 AM-16 °C-19 °C78 %1017.6 hPa24.1 kmNNE (20°)16.7 km/hSnowLight Snow
6:00 AM-16 °C-19 °C78 %1017.3 hPa24.1 kmNorth (360°)14.8 km/hSnowLight Snow
7:00 AM-16 °C-19 °C78 %1017.3 hPa24.1 kmNorth (10°)11.1 km/hSnowLight Snow
8:00 AM-15 °C-19 °C72 %1017.3 hPa24.1 kmNNE (20°)16.7 km/hSnowLight Snow
9:00 AM-15 °C-18 °C78 %1016.9 hPa19.3 kmNNE (20°)13 km/hSnowLight Snow
10:00 AM-14 °C-18 °C72 %1016.6 hPa24.1 kmNorth (360°)11.1 km/hSnowLight Snow
11:00 AM-13 °C-17 °C73 %1016.3 hPa24.1 kmNNE (20°)13 km/hMostly Cloudy
11:52 AM-12 °C-17.8 °C24.1 kmNorth (360°)13 km/hMostly Cloudy
12:00 PM-12 °C-15 °C79 %1014.9 hPa24.1 kmNorth (360°)13 km/hMostly Cloudy
1:00 PM-11 °C-15 °C73 %1013.9 hPa24.1 kmNNE (30°)14.8 km/hMostly Cloudy
1:00 PM-11.1 °C-15 °C64 %1013.9 hPa24.1 kmNNE (20°)14.8 km/hPartly Cloudy
2:00 PM-10 °C-14 °C73 %1012.9 hPa24.1 kmNorth (10°)18.5 km/hMostly Cloudy
3:00 PM-10 °C-13 °C79 %1012.2 hPa24.1 kmNNE (20°)18.5 km/hMostly Cloudy
4:00 PM-9 °C-13 °C73 %1011.5 hPa24.1 kmNNE (30°)16.7 km/hMostly Cloudy
5:00 PM-10 °C-14 °C73 %1011.2 hPa24.1 kmNorth (10°)14.8 km/hMostly Cloudy
6:00 PM-11 °C-14 °C79 %1010.8 hPa24.1 kmNorth (10°)14.8 km/hScattered Clouds
7:00 PM-10 °C-14 °C73 %1010.5 hPa24.1 kmNNE (20°)13 km/hMostly Cloudy
7:00 PM-10.6 °C-13.9 °C69 %1010.5 hPa24.1 kmNNE (20°)13 km/hMostly Cloudy
8:00 PM-11 °C-14 °C79 %1010.5 hPa24.1 kmNNW (330°)9.3 km/hOvercast
9:00 PM-11 °C-14 °C79 %1010.2 hPa24.1 kmNorth (350°)11.1 km/hOvercast
9:30 PM-10 °C-17.8 °C24.1 kmNorth (10°)11.1 km/hSnowLight Snow
10:00 PM-10 °C-14 °C73 %1009.8 hPa24.1 kmNNW (340°)7.4 km/hSnowLight Snow
11:00 PM-10 °C-13 °C79 %1009.1 hPa24.1 kmNorth (10°)13 km/hSnowLight Snow
Hourly data recorded from CYUL, located 0 kilometers away from Montreal, Quebec







STORIES FROM OUR PARTNERS